GFSMW_700_spd_336.txt.gz
Wind_Speed
7 4 3 1 2 2 7 3 10 11 13 12 14 14 14 13 17 19 17 15 14 13 9 6 6 6 6 8 7 7 7 7 6 8 9 13 11 12 12 14 17 19 20
7 6 5 4 3 2 5 9 11 11 11 10 11 18 19 17 19 18 16 13 12 11 11 7 6 5 6 7 5 6 7 8 9 9 10 14 14 14 14 15 18 21 18
7 8 7 8 7 7 5 5 6 6 9 11 10 11 17 17 18 16 15 15 13 13 12 5 6 6 5 4 4 6 7 9 10 10 9 8 14 14 16 18 19 20 18
13 12 11 10 10 9 6 4 2 1 4 8 13 14 15 16 18 19 19 19 15 12 9 6 7 5 4 5 8 10 10 12 13 13 15 14 16 15 14 18 17 18 17
11 10 12 12 12 9 7 5 4 2 2 7 7 12 17 19 20 21 21 18 16 14 10 7 4 4 4 5 7 9 11 16 11 11 12 13 17 19 18 15 11 11 17
18 14 13 13 10 10 8 9 10 4 5 7 7 8 18 18 16 13 18 19 15 12 8 6 5 4 3 4 10 11 13 15 12 12 14 16 16 17 15 12 10 9 13
19 18 13 9 8 8 12 17 14 14 8 6 8 11 17 19 14 12 14 14 12 9 7 6 5 4 8 11 12 13 15 15 14 14 14 13 11 9 9 9 9 11 12
19 16 12 12 10 11 16 21 13 11 11 14 10 9 17 20 18 17 16 12 9 4 9 5 5 6 9 12 14 14 13 12 10 8 6 7 8 8 8 8 9 8 13
18 22 17 15 14 15 18 16 14 8 12 9 4 8 16 19 17 15 12 10 9 14 5 5 5 9 11 11 11 11 9 9 8 7 7 7 7 7 8 9 10 9 6
21 21 20 17 16 17 17 17 14 9 10 10 19 18 15 18 16 15 14 10 9 6 4 6 8 9 10 9 7 7 6 6 7 6 6 6 7 9 10 10 10 11 11
19 21 20 18 17 16 16 15 14 12 7 8 1 8 14 16 14 12 7 3 3 5 6 8 9 8 6 5 3 4 5 5 4 5 6 7 8 9 10 10 10 9 8
16 17 19 18 18 15 15 14 12 12 12 11 6 9 8 9 7 6 5 5 4 7 6 7 6 5 3 2 3 3 2 3 4 5 6 7 7 8 8 9 9 7 6
17 17 20 18 17 16 15 13 12 12 10 10 7 7 6 3 5 6 4 4 2 5 5 3 2 2 1 1 1 1 2 3 4 5 6 7 8 8 9 8 7 7 6
17 19 20 19 17 15 13 13 12 12 10 12 11 9 6 4 5 4 2 5 2 3 2 2 1 1 2 2 1 2 4 4 5 6 7 8 8 10 9 8 7 7 8
20 23 21 19 17 17 15 13 13 13 12 12 12 11 9 8 8 6 4 4 1 3 2 1 2 2 2 2 3 3 4 5 6 6 7 8 10 10 9 7 6 7 9
20 19 19 18 16 16 14 13 12 13 11 10 10 10 9 9 7 4 4 2 3 2 3 3 3 2 2 2 1 3 5 6 6 7 7 9 9 9 7 7 9 10 10
18 18 17 15 14 14 13 12 12 13 13 12 10 9 9 8 5 3 3 3 3 2 3 3 3 2 2 2 3 4 5 6 6 7 9 9 9 7 7 8 9 9 9
19 19 19 19 18 16 16 16 15 14 14 12 10 5 6 6 4 4 3 4 4 3 3 3 3 1 1 3 4 4 5 6 6 7 9 10 9 8 8 9 11 12 13
23 21 19 18 19 18 15 16 17 16 15 13 9 6 5 4 5 5 6 5 3 4 4 3 2 1 1 2 2 3 4 5 7 9 10 10 9 9 10 11 12 14 15
27 26 24 23 22 21 16 16 17 17 15 10 7 6 6 6 6 6 6 5 5 5 4 4 3 2 1 1 3 5 5 6 8 8 8 8 9 10 13 14 15 15 17
27 32 27 26 25 23 17 17 18 17 13 11 9 8 7 7 7 7 7 7 7 6 7 6 5 3 2 3 4 4 6 7 7 7 9 11 12 12 13 14 15 15 15
34 30 30 27 25 24 20 17 18 18 15 14 11 10 8 8 9 9 9 8 8 9 9 9 6 4 4 5 6 7 7 8 8 9 9 9 10 12 13 14 14 14 15
35 34 28 27 22 24 22 20 20 20 18 15 11 11 11 10 11 11 11 11 11 12 12 10 8 5 3 3 5 6 7 9 8 9 11 12 12 12 13 14 15 16 15
41 36 36 33 30 27 23 23 22 20 16 16 14 13 14 13 13 13 14 14 14 13 11 10 7 3 2 4 5 5 6 9 9 10 11 12 13 14 15 15 15 16 17
45 41 38 34 34 30 29 25 25 21 18 16 16 16 17 17 17 18 17 17 15 13 11 9 6 1 3 4 5 5 5 7 8 10 12 13 14 15 15 17 16 16 16
44 45 39 34 34 34 34 28 27 24 18 14 16 16 18 22 22 22 19 17 16 15 12 10 8 4 1 3 5 3 3 3 5 8 11 13 13 14 15 18 16 15 15

GFSMW_700_spd_339.txt.gz
Wind_Speed
11 11 9 7 5 3 6 6 12 12 14 15 14 19 13 8 14 22 22 22 18 15 12 7 5 5 6 6 7 8 7 7 8 9 6 6 9 11 9 13 17 18 16
14 13 10 9 7 3 3 4 6 9 11 12 17 18 18 13 16 21 20 16 18 16 11 8 5 5 5 6 5 6 7 8 8 9 7 10 9 20 20 18 21 18 13
14 14 12 12 9 5 1 4 6 8 9 11 11 15 21 18 17 19 19 18 17 13 11 9 6 5 5 5 5 7 9 9 10 13 9 12 12 14 15 22 17 26 16
16 14 13 15 11 7 6 4 3 4 7 11 13 12 16 19 18 19 19 18 14 11 11 8 6 4 5 5 6 8 9 10 14 10 11 10 11 14 7 7 18 23 13
16 15 15 14 14 10 7 6 4 4 4 11 14 16 16 20 22 24 22 20 14 11 11 6 5 6 6 6 4 6 8 11 13 10 9 10 12 13 12 8 10 15 17
16 16 15 14 16 11 7 5 4 4 9 10 11 17 19 19 18 19 19 16 15 12 10 7 8 7 5 7 10 12 11 12 12 11 10 11 11 11 8 4 9 5 17
16 18 17 16 16 14 11 10 6 4 2 11 15 13 19 18 15 14 14 17 14 13 10 11 10 7 6 7 9 13 13 13 11 10 10 9 10 7 8 7 4 5 11
19 18 17 17 17 13 13 14 9 10 11 1 11 15 17 21 16 11 12 15 13 13 11 11 8 6 7 10 13 12 11 9 7 5 5 6 6 5 6 7 6 4 10
21 19 18 17 14 13 16 16 8 9 17 4 8 9 16 17 13 14 15 14 10 9 10 7 5 7 11 10 12 11 7 5 4 4 4 5 5 5 7 8 8 6 6
22 21 18 17 16 15 17 11 9 6 11 14 9 12 16 15 16 14 13 11 9 12 4 6 7 11 11 8 9 6 5 4 4 3 3 5 7 8 8 8 9 9 11
21 22 20 19 18 17 17 15 11 9 6 10 12 15 15 17 16 15 14 10 7 9 7 9 10 7 6 5 6 4 3 3 3 4 4 5 5 7 9 9 11 10 9
19 22 23 22 21 16 16 16 14 9 2 4 11 15 14 13 13 13 11 8 7 6 10 9 6 4 4 3 5 3 1 2 3 4 4 5 6 7 9 9 8 6 5
20 21 21 23 21 15 15 15 14 11 15 8 10 9 10 9 8 7 7 8 9 10 10 6 3 3 2 4 4 2 1 3 3 3 4 5 6 7 7 7 5 5 4
20 22 22 23 21 15 16 15 16 11 13 15 12 11 10 7 6 7 8 7 6 7 4 3 2 3 5 5 3 2 1 3 4 4 5 6 6 7 6 5 4 4 6
20 22 23 25 20 17 15 15 16 15 16 11 10 14 13 7 7 6 8 6 5 3 3 4 5 5 5 3 2 0 2 3 4 4 6 6 7 7 6 5 5 7 8
22 23 24 26 20 16 16 16 17 14 13 12 12 11 10 9 8 8 6 6 4 2 3 4 5 4 3 2 1 2 3 3 4 6 6 7 8 7 6 6 8 8 9
22 24 25 22 19 17 17 16 15 16 14 13 11 10 11 9 7 8 6 4 4 4 5 5 5 4 2 1 1 3 3 4 4 4 6 7 7 6 6 7 8 9 10
22 25 23 22 20 18 18 17 17 16 15 13 13 11 10 10 10 7 4 4 4 6 6 5 5 3 2 0 2 3 3 3 4 6 7 7 7 7 7 8 9 10 11
23 22 22 18 18 18 16 17 17 17 16 15 12 10 9 7 8 6 5 5 6 7 7 6 5 3 2 2 2 3 3 4 5 5 5 6 7 8 8 9 10 11 12
24 24 24 24 19 20 18 17 16 18 17 15 12 10 7 7 8 7 6 6 8 8 7 6 5 4 3 1 2 3 3 3 4 5 7 9 9 9 11 12 13 13 14
26 25 26 26 16 17 17 15 18 18 17 17 14 10 8 9 9 8 7 8 10 9 7 7 6 4 2 2 2 2 1 2 4 6 8 10 11 13 13 14 15 15 16
26 27 29 29 22 18 17 16 17 20 20 16 12 9 10 10 9 10 10 10 10 10 10 8 6 4 2 2 2 3 3 4 5 8 8 10 11 12 14 15 15 15 14
24 27 32 33 26 19 19 17 17 23 21 16 13 12 13 12 11 11 11 12 12 13 14 10 7 3 2 0 0 0 3 6 6 8 10 11 12 13 14 15 16 15 14
28 29 31 32 28 23 20 20 16 20 21 19 15 14 15 14 14 14 14 15 16 16 16 12 8 4 2 1 0 2 4 6 6 8 10 13 14 14 16 17 19 18 17
26 31 35 36 28 26 22 23 19 18 20 21 20 18 17 17 17 15 15 16 19 18 16 14 11 4 2 0 1 2 3 6 7 8 9 11 13 14 16 17 20 19 19
25 32 40 38 37 35 31 29 25 18 21 22 22 21 20 21 20 18 18 20 19 17 16 15 13 9 5 2 3 3 2 8 10 8 8 12 13 14 16 19 22 23 21

GFSMW_700_spd_342.txt.gz
Wind_Speed
16 14 13 15 9 5 7 9 8 13 14 17 21 22 21 19 18 21 22 24 18 14 11 8 6 7 6 4 6 6 5 7 9 8 9 10 13 9 15 20 20 15 20
15 15 14 15 8 3 3 6 2 10 13 18 20 21 22 18 16 18 23 24 19 14 10 7 6 7 5 4 5 6 5 8 9 9 10 8 13 17 16 20 11 17 17
16 20 13 16 11 3 1 2 4 6 12 16 21 17 23 18 10 14 19 19 19 13 11 9 9 7 4 3 3 6 9 8 10 14 12 8 8 9 12 15 16 17 19
20 22 14 17 15 3 4 2 2 4 9 11 14 16 17 16 12 16 18 16 16 13 10 12 10 6 5 2 4 8 8 7 9 13 7 7 8 7 5 2 12 15 18
23 22 14 17 14 9 6 5 2 5 8 12 13 12 13 18 18 18 18 16 15 12 12 12 8 7 5 4 5 5 9 10 12 10 9 7 8 8 3 4 13 13 14
22 21 24 8 14 14 7 6 3 5 8 9 15 16 13 15 17 17 20 16 15 13 12 12 8 6 5 6 8 11 10 11 12 11 10 9 8 8 7 3 10 9 8
23 13 16 15 11 14 6 6 6 4 4 12 14 14 18 15 15 14 16 15 14 16 14 11 9 6 5 7 7 11 12 10 11 9 7 7 7 6 7 3 3 8 11
20 20 16 12 12 9 9 11 6 5 6 8 15 17 16 17 15 12 11 15 17 16 13 11 7 6 7 8 11 11 10 9 8 4 5 6 6 5 4 3 3 7 7
25 21 14 13 15 16 11 15 7 7 13 4 11 16 16 18 15 8 10 17 15 12 11 8 6 5 7 10 12 10 8 5 6 3 4 4 5 5 6 6 6 8 12
22 22 21 20 19 16 11 11 9 4 15 6 10 13 17 19 16 15 15 15 11 9 7 8 6 7 10 11 11 5 5 5 5 3 2 4 6 7 7 8 6 8 12
28 25 20 17 17 15 14 10 9 4 11 11 13 15 18 19 18 16 14 11 8 12 5 4 6 11 10 7 6 4 4 4 4 3 4 5 7 7 8 9 9 9 10
25 15 23 20 16 16 15 12 4 3 0 10 16 17 16 18 16 14 14 10 8 6 5 7 8 8 7 6 5 5 3 5 6 5 4 6 7 8 8 9 9 8 8
19 16 22 19 17 17 17 13 12 12 12 9 12 15 15 14 13 10 7 6 5 7 6 5 6 8 6 5 4 3 4 5 5 4 4 6 6 8 9 8 6 6 8
18 22 20 20 18 17 18 14 16 14 7 9 4 9 11 11 10 8 5 4 8 5 6 8 7 6 6 3 4 3 5 4 4 4 4 5 6 7 7 6 5 6 8
21 23 21 23 19 19 16 15 15 13 15 13 5 10 10 10 8 6 5 6 4 5 6 7 7 7 5 4 3 4 4 4 3 4 4 5 6 7 6 6 6 8 9
20 23 23 24 19 18 16 16 13 13 13 15 8 10 10 8 5 5 5 6 4 5 7 8 10 5 4 3 4 4 3 4 4 4 5 6 7 7 7 7 8 8 10
22 25 25 26 19 15 15 16 12 14 13 13 11 10 10 8 5 6 6 5 6 7 7 7 5 4 3 4 3 2 4 5 4 5 5 6 7 8 8 9 10 11 11
23 26 25 26 19 16 16 17 16 14 12 12 10 13 10 8 7 6 4 5 5 5 6 6 4 5 5 3 2 2 3 4 3 4 6 8 8 7 8 9 10 11 12
18 25 25 26 18 16 15 16 16 15 14 12 11 9 8 8 7 7 6 4 5 7 6 6 6 5 3 2 2 2 2 1 3 5 6 6 8 9 10 12 13 13 14
19 20 23 25 20 17 14 13 13 16 16 15 12 11 9 7 6 5 6 7 7 7 7 7 6 3 2 2 2 0 1 2 4 5 6 8 10 11 13 14 15 16 18
20 19 22 27 18 15 12 12 9 14 15 17 15 14 11 8 6 7 8 9 8 8 8 7 5 3 2 2 0 2 3 4 5 6 8 10 12 13 14 16 18 19 18
23 21 23 26 23 17 12 10 6 10 17 16 16 14 11 8 7 8 10 10 9 9 10 7 5 4 2 0 1 4 5 5 5 6 7 9 10 13 16 19 20 21 20
33 21 24 27 22 17 16 12 8 9 16 16 17 15 11 9 8 10 11 12 11 12 10 8 6 4 2 1 1 3 5 7 7 7 8 11 14 16 18 20 19 21 23
22 18 27 29 23 23 19 17 15 11 12 16 16 15 13 10 9 11 12 12 12 13 13 10 7 3 3 2 2 1 3 7 9 9 9 12 15 17 17 23 26 23 22
22 25 33 30 23 23 20 19 19 16 13 17 17 16 16 13 13 13 13 12 14 15 16 14 9 5 4 3 2 2 2 9 9 7 7 11 13 13 14 24 26 21 21
26 22 23 27 27 24 24 21 21 19 15 17 19 18 18 16 16 16 14 15 16 17 16 17 16 11 7 5 3 4 4 5 9 6 6 9 8 5 17 27 29 26 21

GFSMW_700_spd_345.txt.gz
Wind_Speed
17 18 19 15 10 9 9 6 12 14 16 17 20 22 23 18 18 21 18 15 15 16 12 7 8 6 5 3 6 6 4 7 8 8 10 9 11 7 9 11 5 14 18
21 18 14 17 10 8 5 4 5 12 15 16 18 22 23 22 21 22 21 19 19 17 13 9 7 4 4 4 6 5 5 9 9 9 9 5 7 2 4 5 9 12 15
28 24 17 18 11 9 4 1 1 6 12 15 20 22 23 26 20 19 21 23 21 18 14 9 7 2 5 4 4 6 8 8 10 13 10 2 3 5 7 8 8 11 12
25 31 18 17 11 7 5 4 3 4 8 13 17 17 19 17 13 13 12 18 21 18 14 11 8 5 6 5 6 6 7 8 9 12 11 7 4 5 7 4 8 12 12
25 31 28 13 10 12 8 5 6 7 8 9 12 16 16 17 16 13 14 16 17 17 14 11 8 7 7 5 5 6 12 10 10 10 10 8 6 5 2 6 6 7 10
20 27 24 13 5 10 8 7 5 6 7 10 14 15 13 13 19 15 15 15 16 16 12 11 9 9 6 5 5 9 11 12 11 9 8 7 6 4 5 5 6 9 11
20 30 25 10 9 11 5 9 7 3 4 12 15 18 16 13 15 16 14 17 16 15 13 12 10 8 6 4 6 10 12 11 9 8 7 7 4 2 2 6 6 7 9
24 18 14 14 4 8 10 12 6 3 11 10 18 16 17 16 13 13 15 17 16 17 13 13 9 6 6 6 9 10 10 8 5 6 5 6 5 4 4 6 8 10 11
27 21 20 12 10 8 13 10 6 6 7 8 14 19 15 18 16 13 13 15 18 17 16 12 7 6 9 9 9 10 8 4 3 4 4 5 6 6 7 8 9 10 13
24 22 18 16 9 10 14 16 8 3 10 1 12 18 17 19 17 13 13 16 17 13 12 10 9 9 10 10 9 8 4 1 3 3 4 7 7 7 7 7 9 12 13
25 25 20 17 8 5 11 16 8 7 11 5 11 15 19 20 18 16 16 17 15 16 11 11 9 9 9 10 7 5 2 1 1 3 5 7 7 8 9 9 12 11 10
29 23 21 15 10 8 9 9 1 4 5 10 11 18 20 20 19 17 15 13 13 16 8 8 8 8 7 8 5 3 2 1 2 4 5 7 7 7 10 11 11 10 9
24 22 20 20 15 10 7 16 12 15 11 13 13 15 18 17 16 14 12 5 12 6 7 7 7 5 6 6 3 3 1 1 2 4 5 6 8 8 8 8 8 8 9
31 25 21 18 15 9 10 20 15 13 12 9 11 14 14 15 14 13 15 8 5 7 7 7 4 5 5 4 3 2 1 2 3 4 5 6 7 8 8 7 7 8 10
31 21 20 15 13 11 13 16 17 15 13 10 9 8 9 11 11 7 7 3 2 6 5 4 6 5 4 4 2 0 1 2 3 4 4 5 6 7 7 8 8 10 12
22 20 18 18 14 13 13 13 15 11 14 10 10 10 10 14 13 9 6 3 6 5 5 6 3 2 3 3 2 2 1 2 3 4 4 5 5 6 6 7 9 10 12
21 23 24 21 18 13 14 12 14 15 13 16 13 12 11 11 11 8 5 5 5 6 6 3 4 5 4 3 3 0 2 3 2 4 4 6 6 6 7 9 10 11 13
22 27 29 25 20 17 14 13 15 16 15 15 16 15 12 10 10 8 7 7 6 5 6 4 5 5 4 3 0 2 1 1 4 4 5 4 5 7 8 10 10 11 12
7 26 27 26 19 18 16 15 14 16 16 14 13 14 15 13 10 9 8 6 4 4 4 5 6 5 3 1 1 1 2 3 5 4 3 5 6 9 11 12 14 15 15
16 13 15 23 17 16 16 16 13 14 14 14 13 12 12 12 12 10 5 5 5 4 5 8 6 4 2 2 2 3 4 4 4 3 4 7 11 13 15 16 17 18 17
24 16 10 17 17 17 15 12 11 10 11 12 12 13 13 13 11 8 6 6 6 6 8 8 6 4 4 3 5 5 5 5 3 4 8 10 12 14 17 18 19 19 20
24 21 15 9 13 16 12 11 9 9 12 14 14 14 15 13 11 8 6 5 6 7 8 7 6 5 5 5 6 6 7 5 4 8 8 10 12 14 15 19 19 18 20
29 29 28 18 6 16 13 11 9 11 10 11 14 16 16 14 11 8 6 6 7 9 9 8 7 5 6 8 8 7 7 6 5 5 5 7 9 10 21 24 21 17 17
15 29 38 31 20 11 14 10 12 9 7 10 13 16 15 14 11 7 6 6 8 10 11 9 8 7 8 10 8 6 7 5 4 4 4 5 4 4 11 21 26 21 17
9 20 41 36 30 15 16 15 13 14 10 12 14 15 16 14 12 9 7 7 10 12 14 14 11 8 9 9 8 6 4 2 1 2 2 1 3 4 7 13 18 18 16
14 13 26 32 28 22 14 18 16 14 11 11 12 14 15 15 14 12 9 8 11 14 16 18 15 13 12 9 8 8 8 6 6 5 7 6 7 8 8 10 16 22 24